Zorg en Hoop Airport

Jump to: basic info | weather | comments

Related pages: nearby airports | nearby navaids | notams | map

Basic information (top)

Codes: ORG SMZO
Location: lon 5.811080, lat -55.190701, elev 10 ft / 3 m msl
Status: small_airport

Weather (top)

Current conditions (rec'd 2015/03/02 11:00Z):

SMZO 021100Z 06002KT 9999 -RA FEW010 SCT025 24/22 Q1013 NOSIG

Airport forecast (rec'd 2015/02/20 06:51Z):

TAF SMZO 200400Z 2006/2106 04003KT 9999 SCT015 TX31/2018Z TN24/2010Z 
     FM201200 06014KT 9999 FEW015TCU SCT020 
      TEMPO 2015/2019 5000 SHRA 
      BECMG 2023/2101 04004KT CAVOK

Latest comments (top)

KLM flights from Caracas - Paramaribo - Dakar - Madrid - fra: I would like to know if this airport ... [read]

More... (top)

See also NOTAMs and nearby airports and navaids, or visit the Zorg en Hoop Airport page at the main OurAirports website..